www.pogodaiklimat.ru

Погода и климат >> Архив погоды >> Украина >> Любешов


ПОГОДА в Любешове

  • Прогноз погоды в Любешове
  • Монитор погоды в Любешове
  • Климат города

АРХИВ ПОГОДЫ в Любешове

Время (UTC), дата Ветер
(напр.,м/с)
 
Видим.   Явления Облачность Т
(С)
Тd
(С)
f
(%)
Тe
(С)
Тes
(С)
Комфортность P
(гПа)
Po
(гПа)
Тmin
(С)
Tmax
(С)
R
(мм)
R24
(мм)
S
(см)
09 8.11 Ю 2 10 км 3 балла +5.7 +2.9 82 +3 +5 1024.0 1005.1
12 8.11 ЮВ 2 10 км 5/0
[Ci fib]
+10.6 +4.3 65 +9 +11 1022.7 1023.0
15 8.11 штиль 0 10 км ясно +7.3 +4.4 82 +6 +6 1023.0 1004.2
18 8.11 штиль 0 4000 м дымка ясно +3.1 +2.3 94 +2 +2 1023.0 1023.0 +10.6
21 8.11 штиль 0 4000 м дымка ясно +0.3 -0.6 94 -1 -1 1023.0 1003.8
00 9.11 штиль 0 1000 м дымка ясно -1.4 -1.4 100 -3 -3 1023.0 1023.0
03 9.11 штиль 0 1000 м дымка ясно -1.5 -1.5 100 -3 -3 1023.0 1016.3
06 9.11 штиль 0 50 м туман ?/? -2.3 -2.3 100 -4 -4 1023.3 1023.0 -2.4
09 9.11 штиль 0 н/о туман н/о -0.2 -0.2 100 -2 +1 1024.0 1004.7
12 9.11 штиль 0 50 м туман ?/? +2.0 +2.0 100 +1 +1 1022.7 1023.0 0.5
15 9.11 В 1 н/о туман н/о +1.7 +1.7 100 -0 -0 1023.0 1003.9
18 9.11 В 1 200 м туман ?/? +1.0 +1.0 100 -1 -1 1022.6 1023.0 +2.4 0.5
21 9.11 СВ 1 200 м туман н/о +1.2 +1.2 100 -1 -1 1022.0 1002.8
00 10.11 В 1 500 м туман {морось} ?/? +0.7 +0.7 100 -2 -2 1021.8 1022.0 0.3
03 10.11 В 1 500 м туман н/о -0.2 -0.2 100 -3 -3 1022.0 1002.7
06 10.11 СВ 2 500 м туман ?/? -0.2 -0.2 100 -4 -4 1021.3 1021.0 -0.6 0.3
09 10.11 ЮВ 2 500 м туман н/о +1.5 +1.5 100 -2 -0 1021.0 1001.9
12 10.11 В 1 2000 м в посл. час туман 10/0
[As trans]
+4.7 +4.2 97 +3 +4 1020.2 1020.0
15 10.11 В 2 4000 м дымка 10 баллов +4.6 +4.2 97 +2 +2 1020.0 1001.1
18 10.11 В 2 4000 м дымка 10/10 660 м
[Sc]
+4.5 +3.8 95 +2 +2 1020.4 1020.0 +4.9
21 10.11 В 3 4000 м дымка 10 баллов +3.9 +3.5 97 -0 -0 1021.0 1002.1
00 11.11 В 3 1000 м дымка 10/0
[As trans]
+3.1 +2.9 99 -1 -1 1021.5 1022.0
03 11.11 В 3 1000 м дымка 10 баллов +3.5 +3.4 99 -1 -1 1022.0 1003.0
06 11.11 В 4 4000 м дымка 10/10 630 м
[St]
+3.5 +3.0 97 -1 -1 1022.8 1023.0 +3.0
09 11.11 ЮВ 5 4000 м дымка 10 баллов +4.6 +3.6 93 -0 -0 1024.0 1017.4
12 11.11 ЮВ 3 1000 м дымка 10/10 400 м
[St]
+5.5 +4.8 95 +2 +2 1023.7 1024.0
15 11.11 ЮВ 4 10 км 10 баллов +7.2 +4.8 85 +4 +4 1024.0 1005.2
18 11.11 ЮВ 3 10 км 10/10 600 м
[Sc]
+6.5 +3.9 83 +3 +3 1025.2 1025.0 +7.2
21 11.11 штиль 4 н/о 9 баллов +4.1 +2.1 87 -0 -0 1027.0 1008.0
00 12.11 ЮВ 4 10 км 10/10 630 м
[Sc]
+3.7 +1.9 88 -1 -1 1027.3 1027.0
03 12.11 В 3 н/о 9 баллов +2.6 +1.0 89 -2 -2 1029.9 1010.7
06 12.11 ЮВ 4 10 км 10/10 720 м
[Sc]
+2.8 +1.2 89 -2 -2 1029.4 1029.0 +2.4
09 12.11 ЮВ 3 4000 м дымка 10 баллов +3.1 +2.1 93 -1 -1 1030.0 1010.8
12 12.11 ЮВ 3 4000 м дымка 10/10 630 м
[Sc]
+3.7 +2.7 93 -0 -0 1030.5 1031.0
15 12.11 ЮВ 2 4000 м дымка 10 баллов +4.5 +3.5 93 +2 +2 1031.0 1011.9
18 12.11 ЮВ 3 10 км 10/10 660 м
[Sc]
+4.9 +2.7 86 +1 +1 1031.1 1031.0 +5.1
21 12.11 ЮВ 4 4000 м дымка 10 баллов +4.7 +3.5 92 0 0 1031.0 1011.9
00 13.11 Ю 4 10 км 10/10 700 м
[Sc]
+4.9 +3.2 89 +1 +1 1030.9 1031.0
03 13.11 ЮВ 4 10 км 10 баллов +4.9 +3.2 89 +1 +1 1030.0 1011.0
06 13.11 Ю 5 10 км 10/10 660 м
[Sc]
+4.7 +3.0 89 -0 -0 1030.3 1030.0 +4.7
09 13.11 Ю 4 10 км 10 баллов +4.9 +3.2 89 +1 +1 1030.0 1011.0
12 13.11 Ю 5 10 км 10/10 720 м
[Sc]
+5.7 +3.0 83 +1 +1 1028.4 1028.0
15 13.11 ЮВ 4 10 км 10 баллов +5.5 +3.7 88 +1 +1 1027.0 1008.1
18 13.11 Ю 5 10 км 10/10 720 м
[Sc]
+4.6 +2.1 84 -0 -0 1025.5 1026.0 +6.3
21 13.11 Ю 3 10 км 10 баллов +4.1 +1.8 85 0 0 1024.0 1005.0
00 14.11 Ю 3 10 км {ливн. осадки} 10/10 600 м
[Cb calv]
+4.0 +2.2 88 0 0 1022.5 1023.0
03 14.11 ЮЗ 2 4000 м 10 баллов +4.1 +3.4 95 +1 +1 1021.0 1002.1
06 14.11 З 4 4000 м в посл. час дождь 10/10 450 м
[St]
+7.9 +7.3 96 +4 +4 1021.2 1021.0 +3.7 4
09 14.11 З 4 4000 м 10 баллов +8.4 +7.3 93 +5 +5 1022.0 1003.4
12 14.11 З 4 4000 м слабый дождь {ливн. осадки} 10/10 360 м
[Frnb Ns]
+8.2 +7.3 94 +5 +5 1021.9 1022.0 0.6
15 14.11 З 3 4000 м 10 баллов +7.3 +6.9 97 +4 +4 1023.0 1004.3
18 14.11 СЗ 2 10 км 10 баллов +7.5 +6.8 95 +5 +5 1024.0 1005.3 +9.1 3
21 14.11 СЗ 2 10 км 10 баллов +6.7 +5.6 93 +4 +4 1026.0 1007.2
00 15.11 СЗ 2 10 км 10 баллов +4.8 +3.6 92 +2 +2 1027.0 1008.0
03 15.11 СЗ 2 10 км 10 баллов +5.9 +4.2 89 +3 +3 1027.0 1008.1
06 15.11 СЗ 2 10 км 10 баллов +6.1 +4.4 89 +4 +4 1028.0 1009.1 +4.8 0.4

 

Местоположение метеостанции Любешов (Волынская область, Украина): широта 51.67 долгота 25.27 высота над уровнем моря 152 м.

В архиве по умолчанию представлена погода в Любешове за последнюю неделю. Архивные данные за месяц целиком и за предыдущие месяцы, начиная с января 2011 года, Вы можете получить, выбрав интересующий диапазон дат из раскрывающегося списка и нажав кнопку "Ввод!".


*Определитесь, кто Вы:
робот инопланетянин человек

Внимание! Время в таблицах - всемирное. Для получения местного времени необходимо прибавить поправку, которая в Любешове равна 2 ч.

Смотрите также архив погоды в соседних городах и на ближайших метеорологических станциях:

Погода в Маневичах (Волынская область, Украина) (47 км)
Погода в Свитязи (Волынская область, Украина) (54 км)
Погода в Дрогичине (Брестская область, Беларусь) (60 км)
Погода в Ковеле (Волынская область, Украина) (65 км)
Погода в Пинске (Брестская область, Беларусь) (74 км)
Погода в Сарнах (Ровенская область, Украина) (103 км)
Погода в Луцке (Волынская область, Украина) (109 км)
Погода в Пружанах (Брестская область, Беларусь) (111 км)
Погода в Владимире-Волынском (Волынская область, Украина) (114 км)
Погода в Ивацевичах (Брестская область, Беларусь) (115 км)

Пояснения к столбцам:

Ветер - указаны скорость ветра в м/с - средняя за 10 мин, порывы в срок и между сроками (в фигурных скобках) и направление, откуда дует ветер: С - северный, СВ - северо-восточный, В - восточный, ЮВ - юго-восточный, Ю - южный, ЮЗ - юго-западный, З - западный, СЗ - северо-западный.
Видимость - горизонтальная дальность видимости в метрах или километрах. При видимости от 1 до 10 км при отсутствии осадков обычно наблюдается дымка, при ухудшении видимости до 1 км и менее - туман. В сухую погоду видимость может ухудшаться дымом, пылью или мглою.
Явления - указаны атмосферные явления, наблюдавшиеся в срок или в последний час перед сроком; фигурными скобками обозначены явления, наблюдавшиеся между сроками (за 1-3 часа до срока); квадратными скобками обозначены град или гололедные отложения с указанием их диаметра в мм.
Облачность - указаны через наклонную черту общая и нижняя облачность в баллах и высота нижней границы облаков в метрах; квадратными скобками обозначены формы облаков: Ci - перистые, Cs - перисто-слоистые, Cc - перисто-кучевые, Ac - высококучевые, As - высокослоистые, Sc - слоисто-кучевые, Ns - слоисто-дождевые, Cu - кучевые, Cb - кучево-дождевые. Подробнее классификацию облаков см. в Атласе облаков (PDF).
T - Температура воздуха - температура, измеренная на высоте 2 м над землей.
Td - Температура точки росы - температура, при понижении до которой содержащийся в воздухе водяной пар достигнет насыщения.
f - Относительная влажность воздуха - влажноcть воздуха, измеренная на высоте 2 м над землей.
Te - Эффективная температура - температура, которую ощущает одетый по сезону человек в тени. Характеристика душности погоды. При расчете учитывается влияние влажности воздуха и скорости ветра на теплоощущения человека.
Tes - Эффективная температура на солнце - температура, которую ощущает человек, с поправкой на солнечный нагрев. Характеристика знойности погоды. Зависит от высоты солнца над горизонтом, облачности и скорости ветра. Ночью, в пасмурную погоду, а также при ветре 12 м/с и более поправка равна нулю.
P - Атмосферное давление - приведенное к уровню моря атмосферное давление.
Po - Атмосферное давление - измеренное на уровне метеостанции атмосферное давление.
Tmin - Минимальная температура - минимум температуры воздуха на высоте 2 м над землей.
Tmax - Максимальная температура - максимум температуры воздуха на высоте 2 м над землей.
R - Количество осадков - Количество выпавших осадков за период времени, мм. При наведении курсора мыши на число - период времени, за который выпало указанное количество осадков.
R24 - Количество осадков - Количество выпавших осадков за 24 часа, мм.
S - Снежный покров - Высота снежного покрова, см. При наведении курсора мыши на число - состояние снежного покрова и степень покрытия местности в баллах.